Regional Weather Roundup
Issued by NWS

Home | Current Version | Previous Version | Text Only | Print | Product List | Glossary On
Versions: 1 2 3 4 5 6 7 8 9 10 11 12 13 14 15 16 17 18 19 20 21 22 23 24 25 26 27 28 29 30 31 32 33 34 35 36 37 38 39 40 41 42 43 44 45 46 47 48 49 50
000
ASUS43 KOAX 230610
RWRNE

WEATHER ROUNDUP FOR NEBRASKA
NATIONAL WEATHER SERVICE OMAHA NE
100 AM CDT SAT MAY 23 2015

NOTES: SATELLITE DATA IS BEING USED TO AUGMENT CLOUD COVER ABOVE
       12000 FEET.
       "FAIR" INDICATES FEW OR NO CLOUDS BELOW 12,000 FEET WITH NO
       SIGNIFICANT WEATHER AND/OR OBSTRUCTIONS TO VISIBILITY.

  * THESE STATIONS DO NOT REPORT WEATHER SUCH AS RAIN...SNOW OR FOG.

NEZ001>004-019>022-054>056-230700-
NEBRASKA PANHANDLE

CITY           SKY/WX    TMP DP  RH WIND       PRES   REMARKS
SCOTTSBLUFF    CLOUDY    45  45 100 E12       30.05F FOG
6HR MIN TEMP:  45; 6HR MAX TEMP:  49;

ALLIANCE       CLOUDY    45  44  97 SE10      30.06F
6HR MIN TEMP:  45; 6HR MAX TEMP:  48;

CHADRON        LGT RAIN  48  44  86 S5        30.07F
6HR MIN TEMP:  48; 6HR MAX TEMP:  51; 6HR PCP: TRACE;

KIMBALL          N/A    N/A N/A N/A MISG        N/A
SIDNEY         FOG       45  45 100 E9        30.06S VSB 3/4
6HR MIN TEMP:  45; 6HR MAX TEMP:  47; 6HR PCP:  0.02;

$$

NEZ057>060-069>072-079>082-230700-
SOUTHWEST NEBRASKA

CITY           SKY/WX    TMP DP  RH WIND       PRES   REMARKS
NORTH PLATTE   CLOUDY    50  49  96 SE8       30.09S FOG
6HR MIN TEMP:  47; 6HR MAX TEMP:  50; 6HR PCP:  0.08;

IMPERIAL       LGT RAIN  51  50  96 SE13      30.06F FOG
6HR MIN TEMP:  49; 6HR MAX TEMP:  51; 6HR PCP:  0.02;

LEXINGTON      CLOUDY    54  53  97 SE10G16   30.11S FOG
MCCOOK         CLOUDY    53  53 100 SE9       30.09R FOG
6HR MIN TEMP:  51; 6HR MAX TEMP:  53; 6HR PCP:  0.01;

OGALLALA       CLOUDY    49  49  99 E6        30.07F FOG
$$

NEZ005>010-023>029-035>040-094-230700-
NORTH CENTRAL NEBRASKA

CITY           SKY/WX    TMP DP  RH WIND       PRES   REMARKS
VALENTINE      CLOUDY    48  44  86 SE7       30.13F
6HR MIN TEMP:  48; 6HR MAX TEMP:  51;

AINSWORTH      CLOUDY    49  48  97 SE8       30.14S
BROKEN BOW     CLOUDY    51  50  96 SE9       30.11F FOG
6HR MIN TEMP:  49; 6HR MAX TEMP:  51; 6HR PCP:  0.11;

O`NEILL        DRIZZLE   51  50  97 SE5       30.17S
ORD            CLOUDY    50  49  96 E5        30.13F FOG
6HR MIN TEMP:  49; 6HR MAX TEMP:  50; 6HR PCP:  0.11;

THEDFORD       DRIZZLE   49  48  97 SE8       30.11F
$$

NEZ041-046>049-061>064-073>077-083>087-230700-
SOUTH CENTRAL NEBRASKA

CITY           SKY/WX    TMP DP  RH WIND       PRES   REMARKS
GRAND ISLAND   CLOUDY    54  50  86 SE8       30.16S
6HR MIN TEMP:  53; 6HR MAX TEMP:  55; 6HR PCP: TRACE;

AURORA         CLOUDY    54  49  82 SE8       30.17R
HASTINGS       CLOUDY    54  50  86 SE9       30.15R
6HR MIN TEMP:  52; 6HR MAX TEMP:  54; 6HR PCP:  0.01;

HEBRON         CLOUDY    56  47  72 SE7       30.16S
HOLDREGE       CLOUDY    53  51  95 SE15G21   30.13R FOG
KEARNEY *      CLOUDY    54  50  87 SE14      30.14S
YORK           CLOUDY    55  46  71 SE8       30.17S
$$

NEZ011>018-030>034-042>045-230700-
NORTHEAST NEBRASKA

CITY           SKY/WX    TMP DP  RH WIND       PRES   REMARKS
NORFOLK        CLOUDY    54  52  93 CALM      30.18R
6HR MIN TEMP:  53; 6HR MAX TEMP:  56; 6HR PCP:  0.02;

ALBION         CLOUDY    54  46  75 E7        30.16F
BLAIR          CLOUDY    59  47  63 SE8       30.19R
COLUMBUS *     CLOUDY    57  43  58 SE7       30.20S
FREMONT        CLOUDY    60  47  63 SE6       30.19S
TEKAMAH        CLOUDY    57  51  80 S5        30.18F
6HR MIN TEMP:  57; 6HR MAX TEMP:  63;

WAYNE          CLOUDY    55  50  85 CALM      30.19S
$$

NEZ050>053-065>068-078-088>093-230700-
SOUTHEAST NEBRASKA

CITY           SKY/WX    TMP DP  RH WIND       PRES   REMARKS
LINCOLN        CLOUDY    59  45  59 S9        30.19R
6HR MIN TEMP:  59; 6HR MAX TEMP:  62;

OMAHA EPPLEY   CLOUDY    59  49  69 S7        30.19F
6HR MIN TEMP:  58; 6HR MAX TEMP:  67; 6HR PCP: TRACE;

BEATRICE       CLOUDY    57  47  68 SE7       30.18R
FALLS CITY     MOCLDY    57  51  80 SE6       30.19S
6HR MIN TEMP:  56; 6HR MAX TEMP:  64;

NEBRASKA CITY  CLOUDY    58  46  66 SE5       30.19S
PLATTSMOUTH    CLOUDY    58  47  67 SE6       30.19R
$$

NEZ044-045-051>053-067-230700-
OMAHA AREA

CITY           SKY/WX    TMP DP  RH WIND       PRES   REMARKS
OMAHA EPPLEY   CLOUDY    59  49  69 S7        30.19F
6HR MIN TEMP:  58; 6HR MAX TEMP:  67; 6HR PCP: TRACE;

BLAIR          CLOUDY    59  47  63 SE8       30.19R
FREMONT        CLOUDY    60  47  63 SE6       30.19S
MILLARD        CLOUDY    60  50  69 SE5       30.18S
OFFUTT AFB     CLOUDY    57  50  76 SE3       30.18S
PLATTSMOUTH    CLOUDY    58  47  67 SE6       30.19R
WAHOO          CLOUDY    59  48  68 SE7       30.18S
$$



USA.gov is the U.S. government's official web portal to all federal, state and local government web resources and services.